Flag for Germany Weather past 2 weeks in Wittmund, Lower Saxony, Germany

Now
57 °F

Passing clouds.


Feels Like: 55 °F
Forecast: 53 / 70 °F
Wind: 8 mph from Southwest

Location: Wittmundhaven

Current Time: Aug 28, 2015 at 3:24:12 AM

Latest Report: Aug 28, 2015 at 2:20 AM


Visibility: N/A

Pressure: 29.83 "Hg

Humidity: 94%

Dew point: 55 °F

Location of WittmundLocation

Historic Weather in Wittmund — Graph

°F

Wittmund temperature yesterday

Maximum temperature yesterday: 63 °F (at 12:20 AM)
Minimum temperature yesterday: 57 °F (at 11:20 PM)
Average temperature yesterday: 61 °F

Past Weeks' High & Low Weather Summary

 TemperatureHumidityPressure
High79 °F (Aug 14, 3:20 PM)100% (Aug 15, 1:20 AM)30.27 "Hg (Aug 15, 1:20 AM)
Low54 °F (Aug 20, 4:20 AM)34% (Aug 22, 1:20 PM)29.50 "Hg (Aug 24, 6:20 PM)
Average65 °F80%29.91 "Hg
* Reported Aug 13 1:20 AM — Aug 28 1:20 AM, Wittmund, Weather by CustomWeather, © 2015

Note: Actual official high and low records may vary slightly from our data, if they occured in-between our weather recording intervals... More about our weather records

Advertising

Wittmund weather history for previous 24 hours

 ConditionsComfort  
Time TempWeatherWind HumidityBarometerVisibility
1:20 AM
Fri, Aug 28
57 °FPassing clouds.8 mph94%29.83 "HgN/A
12:20 AM57 °FPassing clouds.9 mph88%29.83 "HgN/A
11:20 PM
Thu, Aug 27
57 °FPassing clouds.9 mph88%29.80 "HgN/A
10:20 PM59 °FPassing clouds.9 mph88%29.80 "HgN/A
9:20 PM59 °FPartly sunny.10 mph88%29.80 "HgN/A
8:20 PM59 °FBroken clouds.13 mph88%29.77 "HgN/A
7:20 PM59 °FPartly sunny.13 mph88%29.77 "HgN/A
6:20 PM59 °FMore clouds than sun.10 mph94%29.77 "HgN/A
5:20 PM61 °FLight rain. More clouds than sun.13 mph88%29.80 "HgN/A
5:01 PM61 °FLight rain. More clouds than sun.14 mph88%29.77 "HgN/A
4:20 PM61 °FLight rain. More clouds than sun.13 mph88%29.77 "HgN/A
3:20 PM61 °FLight rain. Cloudy.10 mph88%29.77 "HgN/A
3:02 PM61 °FLight rain. Mostly cloudy.10 mph88%29.77 "Hg5 mi
2:20 PM63 °FLight rain. More clouds than sun.12 mph77%29.77 "HgN/A
1:20 PM63 °FOvercast.14 mph77%29.77 "HgN/A
12:20 PM63 °FOvercast.13 mph83%29.77 "HgN/A
11:20 AM63 °FBroken clouds.14 mph83%29.77 "HgN/A
10:20 AM63 °FPartly sunny.15 mph83%29.74 "HgN/A
9:20 AM63 °FPartly sunny.14 mph88%29.74 "HgN/A
8:20 AM63 °FBroken clouds.12 mph94%29.71 "HgN/A
7:20 AM63 °FSprinkles. Partly cloudy.6 mph94%29.68 "HgN/A
6:20 AM63 °FThunderstorms. Partly cloudy.7 mph100%29.68 "Hg2 mi
5:20 AM63 °FPartly cloudy.6 mph94%29.68 "HgN/A
4:20 AM63 °FLight rain. Passing clouds.5 mph94%29.68 "Hg6 mi
3:20 AM63 °FPassing clouds.8 mph94%29.71 "HgN/A
Weather by CustomWeather, © 2015

See weather overviewHow to use our weather pages